Showing default

YUNYAO-1 19, 58759

Orbit data source: Space-Track

YUNYAO-1 19, 58759 is a payload satellite owned by Yunyao yuhang (CN) in LEO that was launched on Thu, 11 Jan 2024 UTC via a YINLI-1 launch vehicle from the Yellow Sea Launch Area, China (YSLA). Payload-class satellites include a variety of spacecraft equipped with specific instruments for various scientific and technological missions. These include communications satellites like Starlink; space stations such as the ISS; scientific satellites like the Hubble; Earth observation satellites from companies like Planet Labs, Umbra, and HawkEye 360; GPS; miniature CubeSats for education and research; and military/defense satellites.

Loading next visibility...
Identifier
58759, 2024-009B
Orbit
LEO
Country
Flag of CNCN / PRC
Related business
Manufacturer
Changguang WJ
Mission
Operational Commercial Meteo Radio Occ.
Bus & Motor
YY-1, Unknown motor
Mass
~500 kg wet, ~500 kg dry
Launch date (UTC)
2024-01-11 (2 years ago)
Launch vehicle
YINLI-1
Launch site
Yellow Sea Launch Area, China (YSLA)
Object type
Payload
Rocket body
Debris
Shape & HBR
Box + 1 Pan, 2.5 m
Radar Cross Section
5.339 m², Medium (>0.1 m² and < 1m²)

Expand to show TLE details & history
Last TLE update: 7 hours ago

TLE from 7 hours ago
0 YUNYAO-1 19
1 58759U 24009B   25347.00637128  .00014974  00000-0  83343-3 0  9996
2 58759  49.9853 355.0962 0005316 258.9418 101.0935 15.13771838106422
Epoch: 2025-12-13T00:09Z
TLE epoch observation values (Epoch: 2025-12-13T00:09:10.478Z)
Latitude
-0.00003°
Longitude
-89.13732°
Altitude
525.967 km
Speed
7.601 km/s
True Right ascension
23h 40m 23s
True Declination
0° 00' 00"
Sunlit
Object was in daylight at epoch
Visualization orbit readout
Latitude
Unknown
Longitude
Unknown
Altitude
Unknown
Speed
Unknown
Apparent Right ascension
Unknown
Apparent Declination
Unknown
Sunlit
N/A
Visualization observer readout
Local Sidereal Time
05:24:51
Azimuth
Unknown
Elevation
Unknown
Doppler factor
Unknown
Orbital elements
Apogee altitude
529.15 km
Perigee altitude
521.811 km
Semi-major axis
6,903.618 km
Eccentricity
0.00053
Inclination
49.9853°
RAAN
355.0962°
Arg. of periapsis
258.9418°
True anomaly
101.15327°
Mean anomaly
101.0935°
Eccentric anomaly
101.12339°
Mean motion
3.7838 °/min
Orbital period
95.14 mins
BSTAR
0.00083343
Loading maneuver chart data...
Computing Atmospheric mass density...
Loading historical data...
Loading historical data...
Loading historical data...
Loading historical data...
Loading historical data...
Loading historical data...
Loading historical data...
Other satellites on launch #9 in the year 2024 (2024-01-11 UTC)

Documentation

Showing up to 5 results
|